Location: Ostrava
(49.8330°N, 18.2830°E)
Time: 14:54:51
(UTC+01:00)

NOAA 19 - Visible Passes

Search period start: 30 January 2015 00:00
Search period end: 09 February 2015 00:00
Orbit: 843 x 863 km, 99.0° (Epoch: 29 January)

Date Brightness Start Highest point End Pass type
(mag) Time Alt. Az. Time Alt. Az. Time Alt. Az.
04 Feb 7.8 03:27:27 10° N 03:27:28 10° N 03:27:28 10° N visible
05 Feb 7.8 03:16:10 10° N 03:16:15 10° N 03:16:15 10° N visible
06 Feb 7.9 03:04:54 10° N 03:05:01 11° N 03:05:01 11° N visible
07 Feb 7.9 02:53:40 10° N 02:53:48 11° N 02:53:48 11° N visible
08 Feb 7.9 02:42:27 10° NNE 02:42:35 11° NNE 02:42:35 11° NNE visible
